Content
SEND FEEDBACK

Daily
Averages
Monthly
Summary
United States of America

SAN MARCOS, CALIFORNIA


Home > North America > United States > California
Elevation: 664 feet     Latitude: 33 07N     Longitude: 117 05W

WEATHER
 
SELECT A DAY
Number of Records: 201,372;   Date Range: 1/1/95 - 12/16/14
 
SHARE

PRINT THIS DATA

[ ← Previous Day ]
WEATHER ALMANAC - FEBRUARY 13, 2013
[ Next Day → ]
[ °C ]   °F
Weather ElementAverageHighLow
Temperature52.4 °F61 °F (11:53 am)41 °F (5:53 am)
Dewpoint42.1 °F48.9 °F (3:53 pm)33.1 °F (9:53 am)
Humidity70 %86 % (8:53 pm)35 % (11:53 am)
Barometer30.19 in30.25 in (8:53 am)30.14 in (3:53 pm)
Wind Speed1.9 mph6.9 mph (10:53 am)
Weather ElementAverage
Visibility9.7 mi
Wind DirectionNE (46.9 °)

Weather ElementTotal
Precipitation---
Heating Degree Days14 (Base 65)
Growing Degree Days1 (Base 50)
Averaged from 26 records on February 13, 2013
WEATHER CONDITIONS BREAKOUT
WIND DIRECTION BREAKOUT
WEATHER BY HOUR - FEBRUARY 13, 2013
[ °C ]   °F
Local TimeTemperatureDewpointHumidityBarometerVisibilityWind DirectionWind SpeedGust SpeedPrecipitationEventsConditions
1:53 AM46.0 °F37.9 °F73 %30.22 in10.0 miCalmClear
2:53 AM44.1 °F37.9 °F79 %30.22 in10.0 miCalmClear
3:53 AM44.1 °F37.0 °F76 %30.22 in10.0 miCalmClear
4:53 AM43.0 °F36.0 °F76 %30.22 in10.0 miCalmClear
5:53 AM41.0 °F35.6 °F81 %30.23 in10.0 miEast (100°)3.5 mphClear
6:53 AM43.0 °F34.0 °F71 %30.24 in10.0 miENE (70°)4.6 mphClear
7:53 AM48.9 °F35.1 °F59 %30.24 in10.0 miCalmClear
8:53 AM55.0 °F34.0 °F45 %30.25 in10.0 miCalmClear
9:53 AM59.0 °F33.1 °F38 %30.25 in10.0 miCalmClear
10:53 AM59.0 °F35.1 °F41 %30.24 in10.0 miWSW (240°)6.9 mphClear
11:53 AM61.0 °F33.1 °F35 %30.21 in10.0 miVariable5.8 mphClear
12:53 PM60.1 °F46.0 °F60 %30.19 in10.0 miVariable5.8 mphClear
1:53 PM59.0 °F43.0 °F55 %30.17 in10.0 miWest (260°)5.8 mphClear
2:53 PM59.0 °F46.0 °F62 %30.15 in10.0 miWNW (290°)6.9 mphClear
3:53 PM57.9 °F48.9 °F72 %30.14 in10.0 miVariable4.6 mphClear
4:53 PM57.0 °F48.9 °F74 %30.14 in10.0 miWest (260°)4.6 mphClear
5:53 PM55.9 °F48.9 °F77 %30.15 in10.0 miCalmClear
6:53 PM55.0 °F48.9 °F80 %30.16 in10.0 miCalmClear
7:46 PM53.6 °F48.2 °F82 %30.16 in10.0 miCalmScattered Clouds
7:53 PM53.1 °F48.0 °F83 %30.16 in9.0 miCalmScattered Clouds
8:03 PM53.6 °F48.2 °F82 %30.16 in10.0 miCalmMostly Cloudy
8:28 PM53.6 °F48.2 °F82 %30.16 in9.0 miCalmScattered Clouds
8:53 PM52.0 °F48.0 °F86 %30.16 in8.0 miCalmClear
9:53 PM50.0 °F46.0 °F86 %30.16 in8.0 miCalmClear
10:53 PM50.0 °F45.0 °F83 %30.17 in9.0 miCalmClear
11:53 PM48.9 °F44.1 °F83 %30.17 in8.0 miCalmClear
Hourly data recorded from KCRQ, located miles away from San Marcos, California







STORIES FROM OUR PARTNERS